Simultaneous Nadir Overpasses (SNOs) Predictions

Prediction of SNOs between NPP and TERRA Satellite Orbit:

Table of predicted SNOs for the next 14.0 days since TLE Epoch: 2/11/2012
Index Date (NPP) Time (NPP) Lat,Lon (NPP) SZA (NPP ) Date (TERRA) Time (TERRA) Lat,Lon (TERRA) SZA (TERRA ) Distance(km) Time Diff (sec)
1 02/12/2012 02:55:26 -68.47, -45.49 97.64 02/12/2012 02:56:33 -68.46, -45.42 97.67 3.24 67
2 02/12/2012 03:46:09 68.30, 122.04 82.18 02/12/2012 03:46:01 68.29, 122.02 82.16 1.42 8
3 02/12/2012 04:36:47 -67.99, -70.25 98.16 02/12/2012 04:35:34 -68.02, -70.66 98.11 17.36 73
4 02/14/2012 19:12:21 -68.39, 70.37 98.62 02/14/2012 19:13:06 -68.39, 70.37 98.63 0.24 45
5 02/14/2012 20:03:05 68.28,-122.17 81.25 02/14/2012 20:02:33 68.28,-122.12 81.26 2.16 32
6 02/17/2012 10:38:48 69.22, 17.70 81.33 02/17/2012 10:39:56 69.09, 19.47 81.14 71.44 68
7 02/17/2012 11:29:16 -68.37,-173.83 99.57 02/17/2012 11:29:37 -68.37,-173.79 99.57 2.19 21
8 02/17/2012 12:19:59 68.20, -6.32 80.25 02/17/2012 12:19:05 68.20, -6.35 80.26 1.23 54
9 02/20/2012 02:55:30 68.44, 134.51 79.58 02/20/2012 02:56:39 68.44, 134.53 79.56 1.06 69
10 02/20/2012 03:46:11 -68.29, -57.97 100.60 02/20/2012 03:46:10 -68.29, -58.02 100.60 2.13 1
11 02/20/2012 04:36:52 68.02, 109.68 79.11 02/20/2012 04:35:39 68.06, 109.35 79.17 14.28 73
12 02/22/2012 19:12:26 68.42,-109.70 78.59 02/22/2012 19:13:11 68.40,-109.66 78.55 3.30 45
13 02/22/2012 20:03:07 -68.26, 57.82
